Date,TemperatureHighF,TemperatureAvgF,TemperatureLowF,DewpointHighF,DewpointAvgF,DewpointLowF,HumidityHigh,HumidityAvg,HumidityLow,PressureMaxIn,PressureMinIn,WindSpeedMaxMPH,WindSpeedAvgMPH,GustSpeedMaxMPH,PrecipitationSumIn
2013-2-4,71.0,54.9,31.0,0.0,0.0,0.0,77,34,17,30.14,30.00,12,3,14,0.00
2013-2-5,71.0,52.1,28.0,0.0,0.0,0.0,66,36,19,30.05,29.83,25,5,32,0.00
2013-2-6,68.0,50.9,34.0,0.0,0.0,0.0,60,33,11,30.07,29.83,17,4,18,0.00
2013-2-7,69.0,45.5,24.0,0.0,0.0,0.0,58,35,11,30.08,29.77,29,6,31,0.00
2013-2-8,56.0,45.1,0.0,0.0,0.0,0.0,55,40,24,29.80,29.70,26,11,32,0.00
2013-2-9,57.0,42.9,0.0,0.0,0.0,0.0,62,39,21,30.00,29.80,17,5,17,0.00
2013-2-10,60.0,40.5,0.0,0.0,0.0,0.0,73,40,17,30.04,29.88,16,4,16,0.00
2013-2-11,58.0,41.9,0.0,0.0,0.0,0.0,42,26,12,30.23,29.09,22,6,22,0.00
2013-2-12,100.0,37.1,0.0,0.0,0.0,0.0,47,28,18,30.35,29.86,9,1,9,0.00
2013-2-13,64.0,41.1,19.0,0.0,0.0,0.0,48,31,18,30.29,30.12,13,2,13,0.00
2013-2-14,71.0,45.5,0.0,0.0,0.0,0.0,50,32,18,30.25,30.12,22,5,22,0.00
2013-2-15,73.0,48.2,0.0,0.0,0.0,0.0,60,31,14,30.34,30.24,15,5,15,0.00
2013-2-16,71.0,45.5,0.0,0.0,0.0,0.0,51,28,12,30.33,29.99,9,2,9,0.00
2013-2-17,70.0,47.2,23.0,0.0,0.0,0.0,45,27,10,30.00,29.82,13,4,13,0.00
2013-2-18,68.0,48.9,25.0,0.0,0.0,0.0,54,33,18,30.02,29.81,17,5,17,0.00
2013-2-19,60.0,44.4,0.0,0.0,0.0,0.0,70,47,25,29.81,29.51,36,10,36,0.00
2013-2-20,62.0,46.9,32.0,0.0,0.0,0.0,79,40,16,29.89,29.49,24,7,24,0.00
2013-2-21,58.0,37.9,0.0,0.0,0.0,0.0,62,35,15,30.07,29.88,20,4,20,0.00
2013-2-22,61.0,41.5,0.0,0.0,0.0,0.0,50,30,15,30.19,30.07,13,3,13,0.00
2013-2-23,39.0,32.5,29.0,0.0,0.0,0.0,42,38,33,30.09,30.01,7,2,7,0.00
2013-2-25,63.0,45.4,18.0,0.0,0.0,0.0,37,21,13,30.24,29.97,10,4,10,0.00
2013-2-26,63.0,42.9,0.0,0.0,0.0,0.0,39,24,13,30.20,30.03,14,4,14,0.00
2013-2-27,62.0,42.1,0.0,0.0,0.0,0.0,38,22,13,30.35,30.20,10,3,10,0.00
2013-2-28,69.0,46.6,22.0,0.0,0.0,0.0,36,22,11,30.42,30.32,8,3,8,0.00